Appleton, WI

10:04 PM CDT on May 25, 2017 (GMT -0500)
Outagamie County Regional

Weather History for KATW - February, 2013

Change the Weather History Date:

Saturday, February 16, 2013

  Actual Average Record
Temperature  
Mean Temperature 8 °F -  
Max Temperature 17 °F 27 °F 55 °F (1981)
Min Temperature 0 °F 10 °F -12 °F (1958)
Degree Days  
Heating Degree Days 56    
Moisture  
Dew Point -2 °F    
Average Humidity 68    
Maximum Humidity 85    
Minimum Humidity 42    
Precipitation  
Precipitation 0.00 in - - ()
Sea Level Pressure  
Sea Level Pressure 30.13 in    
Wind  
Wind Speed 8 mph (WNW)    
Max Wind Speed 12 mph    
Max Gust Speed -    
Visibility 10 miles    
Events      
Averages and records for this station are not official NWS values.
T = Trace of Precipitation, MM = Missing Value Source: NWS Daily Summary

Daily Weather History Graph

Daily Weather History Graph

Search for Another Location

Airport or City:

Trip Planner

Search our weather history database for the weather conditions in past years. The results will help you decide how hot, cold, wet, or windy it might be!

Date:

Astronomy

Feb. 16, 2013 Rise Set
Actual Time 6:51 AM CST 5:25 PM CST
Civil Twilight 6:22 AM CST 5:54 PM CST
Nautical Twilight 5:48 AM CST 6:28 PM CST
Astronomical Twilight 5:14 AM CST 7:02 PM CST
Moon 9:48 AM CST (2/16) No Moon Set
Length of Visible Light 11h 32m
Length of Day
10h 33m
Waxing Crescent, 39% of the Moon is Illuminated
Feb 16
Waxing Crescent
Feb 17
First Quarter
Feb 25
Full
Mar 4
Last Quarter
Mar 11
New

Hourly Weather History & Observations

Time (CST) Temp. Windchill Dew Point Humidity Pressure Visibility Wind Dir Wind Speed Gust Speed Precip Events Conditions
12:15 AM 10.4 °F 0.8 °F -0.4 °F 62% 30.15 in 10.0 mi NW 5.8 mph - N/A   Scattered Clouds
12:35 AM 10.4 °F -0.4 °F -0.4 °F 62% 30.15 in 10.0 mi WNW 6.9 mph - N/A   Clear
12:55 AM 8.6 °F -1.3 °F -0.4 °F 67% 30.14 in 10.0 mi WNW 5.8 mph - N/A   Clear
1:15 AM 8.6 °F -2.6 °F -0.4 °F 67% 30.14 in 10.0 mi WNW 6.9 mph - N/A   Clear
1:35 AM 8.6 °F -2.6 °F -0.4 °F 67% 30.14 in 10.0 mi WNW 6.9 mph - N/A   Clear
1:55 AM 6.8 °F -4.8 °F -0.4 °F 72% 30.13 in 10.0 mi West 6.9 mph - N/A   Clear
2:15 AM 5.0 °F -8.1 °F -2.2 °F 72% 30.13 in 10.0 mi West 8.1 mph - N/A   Clear
2:35 AM 5.0 °F -9.1 °F -0.4 °F 78% 30.12 in 10.0 mi West 9.2 mph - N/A   Clear
2:55 AM 5.0 °F -9.1 °F -0.4 °F 78% 30.12 in 10.0 mi West 9.2 mph - N/A   Clear
3:15 AM 3.2 °F -11.3 °F -0.4 °F 85% 30.12 in 10.0 mi West 9.2 mph - N/A   Clear
3:35 AM 3.2 °F -11.3 °F -0.4 °F 85% 30.11 in 10.0 mi WNW 9.2 mph - N/A   Clear
3:55 AM 3.2 °F -11.3 °F -2.2 °F 78% 30.11 in 10.0 mi West 9.2 mph - N/A   Clear
4:15 AM 1.4 °F -13.5 °F -2.2 °F 85% 30.11 in 10.0 mi West 9.2 mph - N/A   Clear
5:15 AM -0.4 °F -15.7 °F -4.0 °F 85% 30.11 in 10.0 mi West 9.2 mph - N/A   Scattered Clouds
5:45 AM -0.4 °F -15.7 °F -5.8 °F 78% 30.11 in 10.0 mi West 9.2 mph - N/A   Scattered Clouds
6:45 AM -0.4 °F -15.7 °F -5.8 °F 78% 30.11 in 10.0 mi West 9.2 mph - N/A   Scattered Clouds
7:45 AM 1.4 °F -15.3 °F -4.0 °F 78% 30.11 in 10.0 mi WNW 11.5 mph - N/A   Scattered Clouds
8:45 AM 5.0 °F -9.1 °F -0.4 °F 78% 30.12 in 10.0 mi NW 9.2 mph - N/A   Scattered Clouds
9:45 AM 8.6 °F -4.7 °F -0.4 °F 67% 30.12 in 10.0 mi NW 9.2 mph - N/A   Partly Cloudy
10:45 AM 10.4 °F 0.8 °F 1.4 °F 67% 30.12 in 10.0 mi NNW 5.8 mph - N/A   Clear
11:45 AM 12.2 °F 1.7 °F 1.4 °F 62% 30.12 in 10.0 mi NW 6.9 mph - N/A   Scattered Clouds
12:45 PM 15.8 °F 5.1 °F 1.4 °F 53% 30.11 in 10.0 mi WNW 8.1 mph - N/A   Scattered Clouds
1:45 PM 15.8 °F 7.2 °F -2.2 °F 45% 30.10 in 10.0 mi NW 5.8 mph - N/A   Mostly Cloudy
2:45 PM 17.6 °F 5.0 °F -2.2 °F 42% 30.10 in 10.0 mi NW 11.5 mph - N/A   Mostly Cloudy
3:45 PM 15.8 °F 2.7 °F -0.4 °F 49% 30.11 in - WNW 11.5 mph - N/A   Mostly Cloudy
4:45 PM 15.8 °F 3.4 °F -0.4 °F 49% 30.12 in 10.0 mi WNW 10.4 mph - N/A   Mostly Cloudy
6:45 PM 10.4 °F 0.8 °F -2.2 °F 57% 30.14 in 10.0 mi WNW 5.8 mph - N/A   Mostly Cloudy
8:45 PM 8.6 °F -2.6 °F -4.0 °F 57% 30.14 in 10.0 mi NW 6.9 mph - N/A   Mostly Cloudy
9:55 PM 8.6 °F -2.6 °F -4.0 °F 57% 30.15 in 10.0 mi NW 6.9 mph - N/A   Clear
10:15 PM 5.0 °F -6.9 °F -4.0 °F 66% 30.15 in 10.0 mi WNW 6.9 mph - N/A   Clear
10:35 PM 5.0 °F -9.1 °F -4.0 °F 66% 30.15 in 10.0 mi West 9.2 mph - N/A   Clear
10:45 PM 5.0 °F -6.9 °F -4.0 °F 66% 30.15 in 10.0 mi WNW 6.9 mph - N/A   Mostly Cloudy
10:55 PM 3.2 °F -12.2 °F -4.0 °F 72% 30.15 in 10.0 mi West 10.4 mph - N/A   Clear
11:15 PM 5.0 °F -8.1 °F -2.2 °F 72% 30.14 in 10.0 mi West 8.1 mph - N/A   Clear
11:35 PM 5.0 °F -9.1 °F -2.2 °F 72% 30.14 in 10.0 mi West 9.2 mph - N/A   Clear
11:55 PM 3.2 °F -12.2 °F -4.0 °F 72% 30.15 in 10.0 mi West 10.4 mph - N/A   Clear